sat.trackr.live / text

‹ back to catalog

QIANFAN-70

NORAD 62800 · 2025-016R

PAYLOAD ACTIVE UNKNOWN

§ Identity

Operator
Country
PRC
Launch date
2025-01-23
Launch site
TAISC
Launch vehicle
Mass (kg)
RCS (m²)

External: N2YO · Heavens-Above · Gunter

§ Orbital elements

Epoch: 2026-09-22T21:26:40.979040Z

Period
106.59 min
Inclination
88.9669°
Eccentricity
0.0013975
Mean motion
13.51024195 rev/d
Perigee alt
1,058.1 km
Apogee alt
1,078.9 km
Semi-major
7,446.6 km
B*
8.1005e-5
RAAN
73.5924°
Arg perigee
230.0510°
Mean anomaly
129.9415°
Rev number
8,560

§ Raw data

QIANFAN-701 62800U 25016R   26265.89352985  .00000064  00000+0  81005-4 0  99972 62800  88.9669  73.5924 0013975 230.0510 129.9415 13.51024195 85601

JSON: /api/v1/satellites/62800 · /tle

For live sub-satellite position, see the globe view (requires WebGL).

§ Visibility from observer

Set your observer location to see the next 7 days of passes ≥ 10°. The values pass through the URL so the page stays shareable.

No JS? Fill the form by hand. The geolocation button needs JavaScript.